Weather History for Hawthorne, CA

Change the Weather History Date:

Saturday, January 4, 2014

  Actual Average Record
Temperature  
Mean Temperature 60 °F -  
Max Temperature 69 °F 64 °F 87 °F (2012)
Min Temperature 50 °F 46 °F 27 °F (1949)
Degree Days  
Heating Degree Days 6    
Growing Degree Days 10 (Base 50)    
Moisture  
Dew Point 49 °F    
Average Humidity 83    
Maximum Humidity 100    
Minimum Humidity 32    
Precipitation  
Precipitation 0.00 in - - ()
Sea Level Pressure  
Sea Level Pressure 29.98 in    
Wind  
Wind Speed 1 mph (WSW)    
Max Wind Speed 7 mph    
Max Gust Speed -    
Visibility 3 miles    
Events Fog    
Averages and records for this station are not official NWS values.
T = Trace of Precipitation, MM = Missing Value Source: NWS Daily Summary

Daily Weather History Graph

Daily Weather History Graph

Search for Another Location

Airport:

Trip Planner

Search our weather history database for the weather conditions in past years. The results will help you decide how hot, cold, wet, or windy it might be!

Date:

Astronomy

Jan. 04, 2014 Rise Set
Actual Time 6:59 AM PST 4:57 PM PST
Civil Twilight 6:31 AM PST 5:25 PM PST
Nautical Twilight 6:00 AM PST 5:56 PM PST
Astronomical Twilight 5:30 AM PST 6:26 PM PST
Moon 9:19 AM PST (1/4) 9:10 PM PST (1/4)
Length of Visible Light 10h 53m
Length of Day
9h 58m
Waxing Crescent, 16% of the Moon is Illuminated
Jan 4
Waxing Crescent
Jan 7
First Quarter
Jan 15
Full
Jan 23
Last Quarter
Jan 30
New

Hourly Weather History & Observations

Time (PST) Temp. Dew Point Humidity Pressure Visibility Wind Dir Wind Speed Gust Speed Precip Events Conditions
12:53 AM 53.1 °F 50.0 °F 89% 29.98 in 3.0 mi Calm Calm - N/A   Clear
1:38 AM 53.6 °F 48.2 °F 82% 29.98 in 4.0 mi Calm Calm - N/A   Scattered Clouds
1:53 AM 53.1 °F 48.9 °F 86% 29.98 in 3.0 mi Calm Calm - N/A   Partly Cloudy
2:15 AM 53.6 °F 50.0 °F 88% 29.97 in 3.0 mi Calm Calm - N/A   Mostly Cloudy
2:53 AM 53.1 °F 50.0 °F 89% 29.97 in 3.0 mi Calm Calm - N/A   Overcast
3:18 AM 51.8 °F 48.2 °F 88% 29.97 in 3.0 mi Calm Calm - N/A   Scattered Clouds
3:48 AM 51.8 °F 48.2 °F 88% 29.97 in 2.5 mi Calm Calm - N/A   Clear
3:53 AM 50.0 °F 48.0 °F 93% 29.97 in 1.8 mi Calm Calm - N/A   Partly Cloudy
4:04 AM 51.8 °F 48.2 °F 88% 29.96 in 1.5 mi Calm Calm - N/A   Mostly Cloudy
4:13 AM 51.8 °F 48.2 °F 88% 29.96 in 2.5 mi NE 3.5 mph - N/A   Overcast
4:43 AM 51.8 °F 51.8 °F 100% 29.96 in 0.8 mi ENE 3.5 mph - N/A   Overcast
4:53 AM 52.0 °F 51.1 °F 97% 29.96 in 0.2 mi Calm Calm - N/A Fog Fog
5:53 AM 52.0 °F 51.1 °F 97% 29.97 in 0.8 mi East 3.5 mph - N/A   Mist
6:02 AM 51.8 °F 51.8 °F 100% 29.97 in 1.5 mi Calm Calm - N/A   Overcast
6:29 AM 51.8 °F 51.8 °F 100% 29.97 in 2.0 mi Calm Calm - N/A   Overcast
6:37 AM 51.8 °F 50.0 °F 94% 29.97 in 1.8 mi Calm Calm - N/A   Mostly Cloudy
6:41 AM 51.8 °F 50.0 °F 94% 29.97 in 2.0 mi Calm Calm - N/A   Scattered Clouds
6:53 AM 52.0 °F 50.0 °F 93% 29.97 in 2.0 mi Calm Calm - N/A   Partly Cloudy
7:12 AM 51.8 °F 50.0 °F 94% 29.98 in 1.2 mi Calm Calm - N/A   Clear
7:19 AM 51.8 °F 50.0 °F 94% 29.98 in 1.0 mi Calm Calm - N/A   Mist
7:30 AM 51.8 °F 51.8 °F 100% 29.98 in 0.8 mi Calm Calm - N/A   Mostly Cloudy
7:53 AM 52.0 °F 50.0 °F 93% 29.99 in 0.5 mi Calm Calm - N/A Fog Fog
8:01 AM 53.6 °F 50.0 °F 88% 29.99 in 1.0 mi Calm Calm - N/A   Mostly Cloudy
8:53 AM 55.0 °F 48.9 °F 80% 30.01 in 1.0 mi Calm Calm - N/A   Haze
9:00 AM 55.4 °F 48.2 °F 77% 30.01 in 3.0 mi Calm Calm - N/A   Haze
9:53 AM 57.9 °F 46.9 °F 67% 30.02 in 4.0 mi Calm Calm - N/A   Haze
10:53 AM 61.0 °F 46.0 °F 58% 30.00 in 5.0 mi South 3.5 mph - N/A   Haze
11:53 AM 64.9 °F 45.0 °F 48% 29.98 in 6.0 mi Calm Calm - N/A   Haze
12:53 PM 66.9 °F 39.0 °F 36% 29.95 in 9.0 mi East 5.8 mph - N/A   Clear
1:53 PM 64.9 °F 50.0 °F 58% 29.94 in 7.0 mi WSW 3.5 mph - N/A   Clear
2:53 PM 69.1 °F 37.9 °F 32% 29.94 in 10.0 mi WSW 5.8 mph - N/A   Clear
3:53 PM 62.1 °F 52.0 °F 70% 29.95 in 8.0 mi West 6.9 mph - N/A   Clear
4:53 PM 61.0 °F 53.1 °F 75% 29.96 in 7.0 mi West 5.8 mph - N/A   Clear
5:53 PM 59.0 °F 52.0 °F 78% 29.97 in 6.0 mi WNW 3.5 mph - N/A   Haze
6:53 PM 57.9 °F 52.0 °F 81% 29.99 in 5.0 mi Calm Calm - N/A   Haze
7:53 PM 57.0 °F 52.0 °F 83% 30.01 in 4.0 mi Calm Calm - N/A   Haze
8:53 PM 57.0 °F 52.0 °F 83% 30.03 in 4.0 mi Calm Calm - N/A   Haze
9:53 PM 55.0 °F 51.1 °F 86% 30.03 in 4.0 mi Calm Calm - N/A   Clear
10:53 PM 55.0 °F 51.1 °F 86% 30.04 in 3.0 mi Calm Calm - N/A   Clear
11:53 PM 54.0 °F 50.0 °F 86% 30.04 in 3.0 mi Calm Calm - N/A   Clear